Back to catalog

STARLINK-37908

AliveCommunicationsSSO
NORAD 69688·PAYLOAD·🇺🇸 United States

Launched Jun 25, 2026 from Vandenberg Space Force Base

Loading…

Next Passes (next 24 hours)

TLE

FreshSource: CelesTrak SupGP

Epoch: Sep 14, 2026, 15:46 UTC

1 69688C 26145M   26257.65743056 -.00063632  00000+0 -19758-2 0  2573
2 69688  97.2842 104.4112 0001786  87.9121  73.5624 15.33462523    16

Track STARLINK-37908 in real time with AllMySat

Download on the App Store